sat.trackr.live / text

‹ back to catalog

STARLINK-5751

NORAD 55576 · 2023-020H

PAYLOAD ACTIVE UNKNOWN

§ Identity

Operator
Country
US
Launch date
2023-02-12
Launch site
AFETR
Launch vehicle
Mass (kg)
RCS (m²)

Purposes: comms

External: N2YO · Heavens-Above · Gunter

§ Orbital elements

Epoch: 2026-09-20T15:03:57.109248Z

Period
94.27 min
Inclination
43.0037°
Eccentricity
0.0001576
Mean motion
15.27575613 rev/d
Perigee alt
482.0 km
Apogee alt
484.1 km
Semi-major
6,861.2 km
B*
1.3106e-5
RAAN
318.5068°
Arg perigee
269.5577°
Mean anomaly
90.5095°
Rev number
19,902

§ Raw data

STARLINK-57511 55576U 23020H   26263.62774432  .00000098  00000+0  13106-4 0  99902 55576  43.0037 318.5068 0001576 269.5577  90.5095 15.27575613199029

JSON: /api/v1/satellites/55576 · /tle

For live sub-satellite position, see the globe view (requires WebGL).

§ Visibility from observer

Set your observer location to see the next 7 days of passes ≥ 10°. The values pass through the URL so the page stays shareable.

No JS? Fill the form by hand. The geolocation button needs JavaScript.